| time (UTC) | temp F | wind direction | speed knots | gust knots | rain 1hr in | rain 24hr in | rain mn in | humidity % | barometer mb |
| 20260503020901 | 41 | 208 | 0.0 | 0.0 | 0.00 | 0.00 | 0.00 | 52 | 1016.3 |
| 20260503015401 | 42 | 230 | 1.7 | 1.7 | 0.00 | 0.00 | 0.00 | 50 | 1016.3 |
| 20260503013902 | 43 | 241 | 1.7 | 2.6 | 0.00 | 0.00 | 0.00 | 48 | 1016.3 |
| 20260503012901 | 43 | 218 | 1.7 | 2.6 | 0.00 | 0.00 | 0.00 | 47 | 1015.9 |
| 20260503011402 | 44 | 225 | 1.7 | 3.5 | 0.00 | 0.00 | 0.00 | 46 | 1015.9 |
| 20260503003902 | 46 | 276 | 3.5 | 6.1 | 0.00 | 0.00 | 0.00 | 43 | 1015.9 |
| 20260503002402 | 47 | 233 | 1.7 | 5.2 | 0.00 | 0.00 | 0.00 | 44 | 1015.6 |
| 20260503001401 | 48 | 296 | 3.5 | 5.2 | 0.00 | 0.00 | 0.00 | 41 | 1015.6 |
| 20260502235902 | 49 | 322 | 3.5 | 5.2 | 0.00 | 0.00 | 0.00 | 40 | 1015.6 |
| 20260502234401 | 48 | 294 | 3.5 | 6.1 | 0.00 | 0.00 | 0.00 | 41 | 1015.6 |
| 20260502232901 | 48 | 220 | 2.6 | 6.1 | 0.00 | 0.00 | 0.00 | 43 | 1015.9 |
| 20260502225901 | 48 | 328 | 1.7 | 5.2 | 0.00 | 0.00 | 0.00 | 42 | 1015.9 |
| 20260502224401 | 49 | 227 | 2.6 | 7.0 | 0.00 | 0.00 | 0.00 | 41 | 1015.9 |
| 20260502221402 | 48 | 319 | 5.2 | 7.0 | 0.00 | 0.00 | 0.00 | 41 | 1015.9 |
| 20260502215902 | 48 | 329 | 4.3 | 6.1 | 0.00 | 0.00 | 0.00 | 43 | 1015.9 |
| 20260502214401 | 47 | 251 | 3.5 | 6.1 | 0.00 | 0.00 | 0.00 | 45 | 1015.9 |
| 20260502212901 | 47 | 35 | 2.6 | 7.0 | 0.00 | 0.00 | 0.00 | 45 | 1015.9 |
| 20260502211401 | 48 | 8 | 2.6 | 6.1 | 0.00 | 0.00 | 0.00 | 43 | 1016.3 |
| 20260502205901 | 49 | 311 | 4.3 | 9.6 | 0.00 | 0.00 | 0.00 | 43 | 1016.3 |
| 20260502204402 | 47 | 301 | 7.0 | 7.8 | 0.00 | 0.00 | 0.00 | 43 | 1016.3 |
| 20260502202902 | 49 | 302 | 4.3 | 7.8 | 0.00 | 0.00 | 0.00 | 41 | 1016.3 |
| 20260502201401 | 49 | 313 | 5.2 | 7.8 | 0.00 | 0.00 | 0.00 | 40 | 1016.6 |
| 20260502195902 | 48 | 318 | 3.5 | 6.1 | 0.00 | 0.00 | 0.00 | 42 | 1016.6 |
| 20260502194402 | 49 | 326 | 6.1 | 8.7 | 0.00 | 0.00 | 0.00 | 40 | 1016.9 |
| 20260502191902 | 47 | 296 | 8.7 | 9.6 | 0.00 | 0.00 | 0.00 | 41 | 1017.3 |
| 20260502190402 | 48 | 309 | 6.1 | 8.7 | 0.00 | 0.00 | 0.00 | 39 | 1017.3 |
| 20260502184901 | 51 | 0 | 5.2 | 8.7 | 0.00 | 0.00 | 0.00 | 38 | 1017.3 |
| 20260502180401 | 47 | 314 | 6.1 | 10.4 | 0.00 | 0.00 | 0.00 | 41 | 1017.6 |
| 20260502170402 | 47 | 354 | 4.3 | 7.0 | 0.00 | 0.00 | 0.00 | 41 | 1017.9 |
| 20260502161902 | 47 | 265 | 3.5 | 7.8 | 0.00 | 0.00 | 0.00 | 41 | 1018.3 |
| 20260502160401 | 44 | 270 | 6.1 | 7.0 | 0.00 | 0.00 | 0.00 | 45 | 1018.3 |
| 20260502150902 | 45 | 335 | 6.1 | 7.8 | 0.00 | 0.00 | 0.00 | 47 | 1018.3 |
| 20260502123401 | 37 | 217 | 1.7 | 3.5 | 0.00 | 0.00 | 0.00 | 74 | 1018.3 |
| 20260502121901 | 36 | 310 | 2.6 | 4.3 | 0.00 | 0.00 | 0.00 | 75 | 1017.9 |
| 20260502113901 | 33 | 286 | 1.7 | 4.3 | 0.00 | 0.00 | 0.00 | 82 | 1017.9 |
| 20260502112402 | 31 | 315 | 2.6 | 2.6 | 0.00 | 0.00 | 0.00 | 84 | 1017.9 |
| 20260502110901 | 31 | 329 | 1.7 | 2.6 | 0.00 | 0.00 | 0.00 | 84 | 1017.6 |
| 20260502105402 | 31 | 292 | 1.7 | 2.6 | 0.00 | 0.00 | 0.00 | 84 | 1017.6 |
| 20260502103902 | 31 | 266 | 1.7 | 3.5 | 0.00 | 0.00 | 0.00 | 84 | 1017.6 |
| 20260502102901 | 31 | 294 | 2.6 | 2.6 | 0.00 | 0.00 | 0.00 | 83 | 1017.6 |
| 20260502101402 | 31 | 299 | 2.6 | 3.5 | 0.00 | 0.00 | 0.00 | 82 | 1017.6 |
| 20260502091402 | 33 | 261 | 2.6 | 3.5 | 0.00 | 0.00 | 0.00 | 78 | 1017.3 |
| 20260502070901 | 36 | 303 | 2.6 | 5.2 | 0.00 | 0.00 | 0.00 | 68 | 1016.6 |
| 20260502065402 | 37 | 307 | 2.6 | 3.5 | 0.00 | 0.00 | 0.00 | 67 | 1016.9 |
| 20260502063901 | 38 | 244 | 2.6 | 5.2 | 0.00 | 0.00 | 0.00 | 67 | 1016.9 |
| 20260502062402 | 38 | 265 | 5.2 | 5.2 | 0.00 | 0.00 | 0.00 | 66 | 1016.9 |
| 20260502054402 | 39 | 241 | 2.6 | 3.5 | 0.00 | 0.00 | 0.00 | 64 | 1017.3 |
| 20260502053401 | 39 | 257 | 1.7 | 2.6 | 0.00 | 0.00 | 0.00 | 64 | 1017.3 |
| 20260502052201 | 39 | 264 | 3.5 | 3.5 | 0.00 | 0.00 | 0.00 | 64 | 1017.3 |
| 20260502050401 | 39 | 325 | 3.5 | 4.3 | 0.00 | 0.00 | 0.00 | 64 | 1017.3 |
| 20260502043401 | 40 | 23 | 3.5 | 6.1 | 0.00 | 0.00 | 0.00 | 65 | 1016.9 |
| 20260502041901 | 40 | 299 | 1.7 | 3.5 | 0.00 | 0.00 | 0.00 | 67 | 1016.6 |
| 20260502040402 | 40 | 269 | 2.6 | 5.2 | 0.00 | 0.00 | 0.00 | 68 | 1016.6 |
| 20260502035901 | 40 | 282 | 4.3 | 4.3 | 0.00 | 0.00 | 0.00 | 69 | 1016.6 |
| 20260502034402 | 39 | 297 | 2.6 | 4.3 | 0.00 | 0.00 | 0.00 | 71 | 1016.6 |
| 20260502033402 | 39 | 329 | 3.5 | 7.0 | 0.00 | 0.00 | 0.00 | 71 | 1016.3 |
| 20260502031901 | 39 | 273 | 2.6 | 3.5 | 0.00 | 0.00 | 0.00 | 72 | 1016.3 |
| 20260502024902 | 39 | 271 | 1.7 | 2.6 | 0.00 | 0.00 | 0.00 | 74 | 1016.3 |